SCP
0 0 0 0 0 0 0 0 0 0 0 0 0 0 0 0 0 0 0 0 0 0 0 0 0 0 0 0 0 0 0 0 0 0 0 0 0 0 0 0 0 0 0 0
0 0 0 0 0 0 0 0 0 0 0 0 0 0 0 0 0 0 0 0 0 0 0 0 0 0 0 0 0 0 0 0 0 0 0 0 0 0 0 0 0 0 0 0
0 0 0 0 0 0 0 0 0 0 0 0 0 0 0 0 0 0 0 0 0 0 0 0 0 0 0 0 0 0 0 0 0 0 0 0 0 0 0 0 0 0 0 0
0 0 0 0 0 0 0 0 0 0 0 0 0 0 0 0 0 0 0 0 0 0 0 0 0 0 0 0 0 0 0 0 0 0 0 0 0 0 0 0 0 0 0 0
0 0 0 0 0 0 0 0 0 0 0 0 0 0 0 0 0 0 0 0 0 0 0 0 0 0 0 0 0 0 0 0 0 0 0 0 0 0 0 0 0 0 0 0
0 0 0 0 0 0 0 0 0 0 0 0 0 0 0 0 0 0 0 0 0 0 0 0 0 0 0 0 0 0 0 0 0 0 0 0 0 0 0 0 0 0 0 0
0 0 0 0 0 0 0 0 0 0 0 0 0 0 0 0 0 0 0 0 0 0 0 0 0 0 0 0 0 0 0 0 0 0 0 0 0 0 0 0 0 0 0 0
0 0 0 0 0 0 0 0 0 0 0 0 0 0 0 0 0 0 0 0 0 0 0 0 0 0 0 0 0 0 0 0 0 0 0 0 0 0 0 0 0 0 0 0
0 0 0 0 0 0 0 0 0 0 0 0 0 0 0 0 0 0 0 0 0 0 0 0 0 0 0 0 0 0 0 0 0 0 0 0 0 0 0 0 0 0 0 0
0 0 0 0 0 0 0 0 0 0 0 0 0 0 0 0 0 0 0 0 0 0 0 0 0 0 0 0 0 0 0 0 0 0 0 0 0 0 0 0 0 0 0 0
0 0 0 0 0 0 0 0 0 0 0 0 0 0 0 0 0 0 0 0 0 0 0 0 0 0 0 0 0 0 0 0 0 0 0 0 0 0 0 0 0 0 0 0
0 0 0 0 0 0 0 0 0 0 0 0 0 0 0 0 0 0 0 0 0 0 0 0 0 0 0 0 0 0 0 0 0 0 0 0 0 0 0 0 0 0 0 0
0 0 0 0 0 0 0 0 0 0 0 0 0 0 0 0 0 0 0 0 0 0 0 0 0 0 0 0 0 0 0 0 0 0 0 0 0 0 0 0 0 0 0 0
0 0 0 0 0 0 0 0 0 0 0 0 0 0 0 0 0 0 0 0 0 0 0 0 0 0 0 0 0 0 0 0 0 0 0 0 0 0 0 0 0 0 0 0
0 0 0 0 0 0 0 0 0 0 0 0 0 0 0 0 0 0 0 0 0 0 0 0 0 0 0 0 0 0 0 0 0 0 0 0 0 0 0 0 0 0 0 0
0 0 0 0 0 0 0 0 0 0 0 0 0 0 0 0 0 0 0 0 0 0 0 0 0 0 0 0 0 0 0 0 0 0 0 0 0 0 0 0 0 0 0 0
0 0 0 0 0 0 0 0 0 0 0 0 0 0 0 0 0 0 0 0 0 0 0 0 0 0 0 0 0 0 0 0 0 0 0 0 0 0 0 0 0 0 0 0
0 0 0 0 0 0 0 0 0 0 0 0 0 0 0 0 0 0 0 0 0 0 0 0 0 0 0 0 0 0 0 0 0 0 0 0 0 0 0 0 0 0 0 0
0 0 0 0 0 0 0 0 0 0 0 0 0 0 0 0 0 0 0 0 0 0 0 0 0 0 0 0 0 0 0 0 0 0 0 0 0 0 0 0 0 0 0 0
0 0 0 0 0 0 0 0 0 0 0 0 0 0 0 0 0 0 0 0 0 0 0 0 0 0 0 0 0 0 0 0 0 0 0 0 0 0 0 0 0 0 0 0
0 0 0 0 0 0 0 0 0 0 0 0 0 0 0 0 0 0 0 0 0 0 0 0 0 0 0 0 0 0 0 0 0 0 0 0 0 0 0 0 0 0 0 0
0 0 0 0 0 0 0 0 0 0 0 0 0 0 0 0 0 0 0 0 0 0 0 0 0 0 0 0 0 0 0 0 0 0 0 0 0 0 0 0 0 0 0 0
0 0 0 0 0 0 0 0 0 0 0 0 0 0 0 0 0 0 0 0 0 0 0 0 0 0 0 0 0 0 0 0 0 0 0 0 0 0 0 0 0 0 0 0
0 0 0 0 0 0 0 0 0 0 0 0 0 0 0 0 0 0 0 0 0 0 0 0 0 0 0 0 0 0 0 0 0 0 0 0 0 0 0 0 0 0 0 0
0 0 0 0 0 0 0 0 0 0 0 0 0 0 0 0 0 0 0 0 0 0 0 0 0 0 0 0 0 0 0 0 0 0 0 0 0 0 0 0 0 0 0 0
0 0 0 0 0 0 0 0 0 0 0 0 0 0 0 0 0 0 0 0 0 0 0 0 0 0 0 0 0 0 0 0 0 0 0 0 0 0 0 0 0 0 0 0
Wind_Speed
6 5 9 11 14 12 9 10 10 7 4 6 9 11 10 11 10 10 10 10 10 8 8 7 6 6 5 4 4 5 7 6 6 6 6 6 6 6 7 8 9 9 8 9
5 12 14 9 8 10 11 12 12 9 4 4 7 11 11 10 14 13 13 12 11 10 9 8 7 6 6 5 5 5 5 5 5 5 6 6 7 7 7 6 8 9 9 8
13 5 7 11 11 8 10 11 11 9 3 4 5 10 14 13 14 12 12 10 12 13 12 10 9 7 7 6 5 5 5 6 8 8 8 9 6 6 6 6 6 7 8 9
12 11 6 7 10 10 10 8 10 9 6 6 7 9 8 11 12 14 12 10 10 11 12 11 9 9 8 6 5 6 6 7 8 8 8 9 8 7 5 5 5 7 8 8
10 7 9 11 11 9 4 3 2 4 6 8 7 13 9 8 10 14 14 12 10 11 12 11 10 9 8 7 6 6 6 7 6 7 8 10 10 9 7 6 8 7 7 7
12 3 5 5 2 6 6 4 1 1 3 9 11 14 12 10 13 11 16 15 13 12 11 11 9 9 8 7 6 6 7 7 7 8 9 10 12 11 10 8 7 5 5 5
9 10 5 3 4 3 6 5 2 4 6 10 9 13 11 5 5 7 12 15 14 13 13 12 12 10 9 9 8 7 8 8 7 9 9 9 10 11 10 9 7 6 5 4
9 10 17 12 12 10 12 10 9 8 8 6 5 12 7 3 3 3 5 12 14 14 12 12 12 10 10 10 9 9 9 8 8 9 9 8 9 7 7 7 7 6 5 5
9 7 7 13 8 9 9 10 9 4 2 4 9 8 5 1 2 3 6 12 15 15 13 13 12 11 11 10 9 10 10 9 9 9 9 8 8 8 8 8 7 6 6 6
4 4 4 6 4 5 5 7 5 7 6 8 10 10 10 9 13 10 11 14 15 15 14 14 13 12 11 9 9 9 9 9 9 9 8 8 8 8 8 8 8 7 6 6
6 5 4 4 12 13 10 7 8 7 6 6 8 10 4 13 14 15 16 16 18 19 18 16 13 12 11 9 9 9 9 9 9 8 8 9 8 8 8 7 8 7 6 6
8 3 5 9 8 8 12 14 13 9 8 7 8 11 2 2 5 12 14 14 15 15 14 14 13 12 11 11 10 10 10 9 9 8 8 9 8 8 8 8 7 7 7 6
10 8 5 4 5 5 8 15 19 11 5 9 10 12 1 3 3 4 10 12 13 14 15 14 14 14 13 12 11 11 10 10 9 9 9 9 9 8 8 8 7 7 7 6
9 9 12 15 8 10 9 13 17 16 12 14 19 13 4 4 4 5 8 11 13 15 16 16 16 15 14 13 13 12 11 11 11 10 10 9 9 9 8 8 8 7 7 6
9 11 13 18 15 7 9 13 19 24 26 19 18 18 16 9 11 11 10 12 13 15 16 19 18 16 15 14 14 13 13 12 12 12 11 10 9 8 8 8 8 7 7 6
11 9 10 19 19 14 13 15 21 26 24 27 23 25 10 7 8 9 11 13 14 14 18 18 17 16 17 17 16 15 14 13 12 12 11 10 10 9 9 9 8 8 7 6
10 9 9 15 13 11 22 28 22 19 21 20 28 30 8 8 9 12 14 15 15 15 17 17 19 18 17 17 16 16 13 12 12 11 11 11 11 11 10 10 9 8 8 6
13 11 8 8 9 22 17 10 21 25 24 21 18 14 10 13 12 11 12 17 17 15 15 14 13 13 11 12 12 11 11 12 13 12 11 11 11 11 10 10 10 8 6 7
14 12 9 8 13 12 9 5 10 16 22 20 20 15 8 5 3 3 5 9 12 12 11 10 10 10 11 13 13 12 12 12 13 13 13 12 12 12 11 11 10 8 7 7
9 10 10 10 8 10 7 2 2 6 11 7 11 13 9 9 8 8 6 6 7 7 7 7 8 8 11 11 13 14 13 13 14 14 12 11 11 12 13 12 9 6 7 7
8 10 15 15 11 8 4 2 4 9 9 2 4 6 9 10 6 3 7 6 6 6 7 8 8 8 8 10 12 12 12 14 12 10 9 10 10 11 10 9 7 7 6 6
12 10 9 8 10 9 5 5 8 4 1 1 1 3 5 4 5 5 6 7 7 7 7 8 8 7 7 9 11 11 11 9 8 9 10 10 10 8 7 8 7 7 7 7
8 8 5 7 5 1 3 2 0 1 2 1 1 2 5 5 4 5 5 6 6 7 7 6 8 8 6 7 9 11 8 8 10 10 9 8 8 7 7 8 9 7 7 6
4 1 2 2 1 1 0 1 1 1 2 2 2 2 4 5 5 5 6 6 6 6 6 6 8 8 6 6 6 6 7 9 10 10 9 8 8 7 6 6 7 7 8 8
4 5 4 2 1 1 3 4 3 1 2 3 2 2 3 5 5 5 5 5 5 5 5 6 7 7 7 6 5 5 7 9 9 8 8 7 7 7 7 7 7 8 7 8
6 7 7 6 8 6 6 7 7 5 4 4 3 2 2 4 5 5 4 4 4 5 5 5 5 5 5 6 5 4 6 8 9 8 7 7 6 6 6 6 5 12 11 14
Wind_Direction
181 208 211 211 213 237 275 296 297 294 117 185 230 248 238 191 204 216 206 187 183 174 139 138 141 141 132 126 124 124 123 129 126 119 107 97 86 78 70 62 56 56 59 61
173 232 232 232 232 233 245 261 267 276 190 196 256 263 262 209 204 208 208 195 182 163 150 155 157 154 146 137 132 131 130 125 105 95 96 98 102 88 80 69 59 55 56 60
206 204 218 227 235 244 245 244 252 257 251 206 267 268 241 237 216 208 209 196 180 171 166 165 166 158 146 141 140 132 118 110 107 109 111 112 105 97 80 69 63 54 59 63
233 242 224 219 221 212 247 243 240 250 267 252 208 271 229 230 219 208 205 198 183 166 161 164 166 156 146 138 130 122 117 116 122 129 133 130 120 113 104 99 86 67 60 64
221 197 199 213 216 202 222 29 307 241 250 265 261 277 254 218 227 216 208 199 186 165 160 162 162 150 139 137 134 127 121 118 120 115 113 112 111 112 112 106 95 82 68 65
246 218 199 224 202 201 128 98 56 288 256 257 220 241 265 203 215 211 205 194 182 164 157 153 145 138 137 138 136 133 126 118 114 111 111 120 125 127 125 119 111 99 88 76
239 226 186 124 117 152 147 153 216 233 224 244 197 223 254 208 198 203 187 179 171 162 160 158 155 155 153 152 147 139 133 126 121 117 116 122 125 127 128 128 124 118 106 93
214 224 189 183 187 179 188 181 184 214 231 256 216 232 249 98 48 27 137 156 159 164 166 164 165 162 158 155 151 145 141 135 129 123 122 122 123 123 125 123 122 118 116 112
217 238 165 177 179 171 173 217 221 248 279 282 252 254 248 99 218 204 165 161 170 171 169 166 165 163 159 158 157 151 146 140 135 131 126 124 122 121 121 118 113 114 117 116
235 237 120 109 125 254 225 177 171 201 219 244 257 236 229 200 219 203 189 181 176 173 172 170 169 165 160 158 152 146 147 145 141 137 137 133 127 125 124 121 121 122 120 115
226 213 151 149 190 189 193 205 194 194 204 214 266 254 222 193 197 195 195 187 181 179 178 175 170 163 156 154 153 150 150 146 145 144 138 134 131 130 126 125 127 127 123 123
196 208 220 214 212 215 207 198 190 191 218 217 244 262 0 33 186 184 188 185 182 179 175 171 165 160 160 162 162 159 157 155 155 147 141 139 136 134 133 134 133 131 130 130
157 171 217 255 202 197 224 214 210 215 203 214 228 257 356 32 29 161 174 177 176 174 173 170 168 171 172 171 170 168 165 162 156 149 148 146 147 146 146 143 140 138 139 140
164 182 206 220 200 177 203 213 211 209 224 234 233 241 232 212 215 201 181 176 175 178 179 177 178 179 178 176 175 173 170 164 161 158 158 159 160 158 154 148 145 147 149 150
170 210 225 243 253 230 199 209 213 217 221 227 240 239 237 212 212 206 188 174 176 181 185 186 185 183 179 178 178 176 174 170 168 166 168 168 161 156 151 149 150 150 151 153
186 213 220 242 243 248 247 230 221 224 229 236 249 254 234 224 207 186 177 178 185 189 191 191 188 183 182 182 181 179 178 173 169 172 173 165 160 158 158 157 154 155 156 155
189 200 214 245 238 236 241 234 227 228 228 229 240 250 246 235 208 190 185 186 191 193 193 192 191 189 186 184 180 180 176 165 169 172 170 167 164 165 164 160 160 167 168 166
190 198 219 238 215 234 242 220 215 226 234 228 235 247 223 214 212 199 184 184 191 192 192 192 188 183 175 169 168 164 160 164 171 173 173 170 167 168 164 164 173 174 170 179
196 199 217 222 235 251 267 215 190 208 236 228 232 242 230 178 144 234 194 179 186 184 181 178 174 167 162 164 163 158 164 167 173 180 180 175 171 169 169 177 181 177 175 187
201 203 222 227 228 226 236 219 210 165 247 239 215 222 199 151 194 228 178 146 142 147 148 146 144 143 154 159 155 160 169 172 183 186 181 173 171 174 180 185 180 173 178 188
190 209 226 235 241 243 240 208 135 173 236 267 206 192 176 186 202 156 130 125 126 124 125 128 131 142 152 149 151 164 170 186 186 170 162 166 174 179 179 175 171 165 173 178
185 197 210 216 233 237 173 159 184 202 67 37 107 146 154 128 99 100 111 120 124 122 123 126 129 133 136 145 152 166 183 179 154 153 161 170 173 171 166 166 168 167 171 181
200 198 198 200 212 124 155 181 88 88 117 72 82 99 131 127 128 120 124 129 130 132 132 128 132 131 137 153 161 174 176 151 150 156 166 166 161 161 162 167 171 170 176 188
213 125 152 164 175 151 306 318 300 57 80 67 73 108 131 136 138 134 133 135 134 134 137 133 136 144 159 169 171 167 151 150 153 162 163 158 161 164 163 171 175 181 188 196
173 158 161 167 155 153 269 251 241 196 103 95 85 96 127 132 136 143 145 147 146 140 140 145 156 165 171 165 167 157 148 149 154 159 159 162 169 171 177 189 197 196 202 199
179 171 175 198 185 181 209 218 213 203 198 174 149 129 108 136 143 141 149 153 149 148 146 152 164 169 165 156 157 155 152 154 156 162 169 172 173 176 180 186 212 231 222 228